"Pseudo-MPEC" for A11gWuh
Created 2025 Jan 18 19:31:02 UT using Find_Orb
Click here for an explanation of pseudo-MPECs
Astrometry:
A11gWuh* C2025 01 01.45205107 39 00.019+24 30 50.65 ~11JV 19.48oVNEOCPT08
A11gWuh C2025 01 01.45390207 38 56.722+24 30 55.87 ~11JV 19.54oVNEOCPT08
A11gWuh C2025 01 01.46930307 38 29.974+24 31 25.32 ~11JV 19.48oVNEOCPT08
A11gWuh C2025 01 01.47856407 38 14.374+24 31 41.27 ~11JV 19.40oVNEOCPT08
A11gWuh C2025 01 02.37511907 30 42.682+24 42 30.36 ~12CV 21.42wXNEOCPF52
A11gWuh C2025 01 02.38716907 30 36.735+24 42 43.80 ~12CV 21.24wXNEOCPF52
A11gWuh C2025 01 02.39922507 30 30.770+24 42 55.56 ~12CV 21.35wXNEOCPF52
A11gWuh C2025 01 03.52705107 27 13.116+24 46 43.56 ~1B1H 22.65wXNEOCPF51
A11gWuh C2025 01 03.53977207 27 10.224+24 46 39.81 ~1B1H 22.48wXNEOCPF51
A11gWuh C2025 01 03.55251007 27 07.471+24 46 35.48 ~1B1H 21.87wXNEOCPF51
Station data:
(F51) Pan-STARRS 1, Haleakala (N20.707234 W156.255910) US/Hawaii.
Observers J. Bulger, T. Lowe, A. Schultz, M. Willman. Measurers K.
Chambers, S. Chastel, T. de Boer, L. Denneau, J. Fairlamb, H. Flewelling,
M. Huber, C.-C. Lin, E. Magnier, Y. Ramanjooloo, R. Wainscoat, R. Weryk.
1.8-m Ritchey-Chrétien + CCD.
(F52) Pan-STARRS 2, Haleakala (N20.707382 W156.255910) US/Hawaii.
Observers J. Bulger, T. Dukes, T. Lowe, A. Schultz, M. Willman. Measurers
K. Chambers, S. Chastel, T. de Boer, L. Denneau, J. Fairlamb, H.
Flewelling, M. Huber, C.-C. Lin, E. Magnier, Y. Ramanjooloo, R. Wainscoat,
R. Weryk. 1.8-m Ritchey-Chrétien + CCD.
(T08) ATLAS-MLO, Mauna Loa (N19.536150 W155.576050) US/Hawaii. Observers
L. Denneau, A. Heinze, H. Weiland, J. Tonry, H. Flewelling, A.
Fitzsimmons, D. Young, B. Stalder. Measurers L. Denneau, A. Heinze, J.
Tonry. 0.5-m f/2.0 Schmidt + CCD.
Orbital elements: A11gWuh
Perihelion 2024 Nov 15.82929 +/- 0.0296 TT = 19:54:10 (JD 2460630.32929)
Epoch 2025 Jan 3.0 TT = JDT 2460678.5 Earth MOID: 0.0000 Ve: 0.0249
M 22.32890197 +/- 0.08 Ma: 0.0235 AutoNEOCP
n 0.46353690 +/- 0.00144 Peri. 288.09384 +/- 0.0047
a 1.65353416 +/- 0.00341 Node 100.22796 +/- 0.0007
e 0.5506326 +/- 0.00114 Incl. 1.25844 +/- 0.0022
P 2.126/776.623d H 29.83 G 0.15 U 8.3
q 0.74304434 +/- 0.000351 Q 2.56402398 +/- 0.00718 (J2000 ecliptic)
From 10 observations 2025 Jan. 1-3; mean residual 0".25
Residuals in arcseconds: 250101 T08 .29+ .39- 250102 F52 .05+ .18- 250103 F51 .18- .03- 250101 T08 .03+ .74+ 250102 F52 .06- .07+ 250103 F51 .36+ .08+ 250101 T08 .16- .34- 250102 F52 .02+ .01+ 250101 T08 .17- .18+ 250103 F51 .18- .03+ Ephemerides (geocentric): Date (UTC) HH RA Dec delta r elong mag " sig PA ---- -------- ------------ ------------ ------ ------ ----- --- -------- 2025 01 18 20 07 23 55.574 +24 43 53.51 .15916 1.1410 170.0 26.7 2.65 96 2025 01 18 21 07 23 55.703 +24 43 51.38 .15955 1.1413 170.0 26.7 2.65 96 2025 01 18 22 07 23 55.833 +24 43 49.23 .15993 1.1417 169.9 26.7 2.65 96 2025 01 18 23 07 23 55.965 +24 43 47.09 .16032 1.1421 169.9 26.7 2.65 96 2025 01 19 00 07 23 56.099 +24 43 44.93 .16070 1.1424 169.8 26.7 2.66 96 2025 01 19 01 07 23 56.235 +24 43 42.77 .16109 1.1428 169.8 26.7 2.66 96 2025 01 19 02 07 23 56.373 +24 43 40.60 .16147 1.1432 169.8 26.8 2.66 96 2025 01 19 03 07 23 56.514 +24 43 38.43 .16186 1.1435 169.7 26.8 2.66 96 2025 01 19 04 07 23 56.656 +24 43 36.25 .16225 1.1439 169.7 26.8 2.66 96 2025 01 19 05 07 23 56.800 +24 43 34.06 .16263 1.1443 169.6 26.8 2.67 96 2025 01 19 06 07 23 56.947 +24 43 31.87 .16302 1.1446 169.6 26.8 2.67 96 2025 01 19 07 07 23 57.095 +24 43 29.67 .16340 1.1450 169.6 26.8 2.67 96 2025 01 19 08 07 23 57.246 +24 43 27.46 .16379 1.1454 169.5 26.8 2.67 96 2025 01 19 09 07 23 57.399 +24 43 25.25 .16418 1.1458 169.5 26.8 2.68 96 2025 01 19 10 07 23 57.553 +24 43 23.03 .16456 1.1461 169.4 26.8 2.68 96 2025 01 19 11 07 23 57.710 +24 43 20.81 .16495 1.1465 169.4 26.8 2.68 96 2025 01 19 12 07 23 57.869 +24 43 18.58 .16534 1.1469 169.4 26.8 2.68 96 2025 01 19 13 07 23 58.030 +24 43 16.34 .16573 1.1472 169.3 26.8 2.68 96 2025 01 19 14 07 23 58.193 +24 43 14.10 .16611 1.1476 169.3 26.8 2.69 96 2025 01 19 15 07 23 58.358 +24 43 11.85 .16650 1.1480 169.2 26.8 2.69 96 2025 01 19 16 07 23 58.525 +24 43 09.60 .16689 1.1483 169.2 26.9 2.69 96 2025 01 19 17 07 23 58.695 +24 43 07.33 .16728 1.1487 169.2 26.9 2.69 96 2025 01 19 18 07 23 58.866 +24 43 05.07 .16766 1.1491 169.1 26.9 2.69 96 2025 01 19 19 07 23 59.039 +24 43 02.79 .16805 1.1494 169.1 26.9 2.70 96 2025 01 19 20 07 23 59.215 +24 43 00.51 .16844 1.1498 169.0 26.9 2.70 96 2025 01 19 21 07 23 59.393 +24 42 58.22 .16883 1.1502 169.0 26.9 2.70 96 2025 01 19 22 07 23 59.572 +24 42 55.93 .16922 1.1505 169.0 26.9 2.70 96 2025 01 19 23 07 23 59.754 +24 42 53.63 .16961 1.1509 168.9 26.9 2.71 96 2025 01 20 00 07 23 59.938 +24 42 51.32 .16999 1.1513 168.9 26.9 2.71 96 2025 01 20 01 07 24 00.124 +24 42 49.01 .17038 1.1516 168.8 26.9 2.71 96 2025 01 20 02 07 24 00.312 +24 42 46.69 .17077 1.1520 168.8 26.9 2.71 96 2025 01 20 03 07 24 00.502 +24 42 44.37 .17116 1.1524 168.8 26.9 2.71 96 2025 01 20 04 07 24 00.695 +24 42 42.04 .17155 1.1527 168.7 26.9 2.72 96 2025 01 20 05 07 24 00.889 +24 42 39.70 .17194 1.1531 168.7 26.9 2.72 96 2025 01 20 06 07 24 01.086 +24 42 37.36 .17233 1.1535 168.6 27.0 2.72 97 2025 01 20 07 07 24 01.285 +24 42 35.01 .17272 1.1538 168.6 27.0 2.72 97 2025 01 20 08 07 24 01.485 +24 42 32.65 .17311 1.1542 168.6 27.0 2.73 97 2025 01 20 09 07 24 01.688 +24 42 30.29 .17350 1.1546 168.5 27.0 2.73 97 2025 01 20 10 07 24 01.893 +24 42 27.92 .17389 1.1549 168.5 27.0 2.73 97 2025 01 20 11 07 24 02.101 +24 42 25.54 .17428 1.1553 168.4 27.0 2.73 97 2025 01 20 12 07 24 02.310 +24 42 23.16 .17467 1.1557 168.4 27.0 2.74 97 2025 01 20 13 07 24 02.521 +24 42 20.78 .17506 1.1560 168.4 27.0 2.74 97 2025 01 20 14 07 24 02.735 +24 42 18.38 .17545 1.1564 168.3 27.0 2.74 97 2025 01 20 15 07 24 02.951 +24 42 15.98 .17584 1.1568 168.3 27.0 2.74 97 2025 01 20 16 07 24 03.169 +24 42 13.58 .17623 1.1571 168.2 27.0 2.74 97 2025 01 20 17 07 24 03.389 +24 42 11.16 .17662 1.1575 168.2 27.0 2.75 97 2025 01 20 18 07 24 03.611 +24 42 08.74 .17701 1.1579 168.2 27.0 2.75 97 2025 01 20 19 07 24 03.835 +24 42 06.32 .17741 1.1582 168.1 27.0 2.75 97